• In Österreich
  • Länderverzeichnis
  • Für 7 Tage
  • Wassertemperatur
  • Satellitenkarten
  • Wetterkarte
  • News
  • Widgets
  • user-avatar
    Anmelden

    Stündliche Wetter Chinsali

    Heute, 19 Oktober, Freitag

    Zeit Temperatur Niederschläge Wind Luftdruck Luftfeuchtigkeit
    00:00 +24°C° 0.1 mm 1 m/S 645 mmHg 53%
    01:00 +23°C° 0.1 mm 1 m/S 645 mmHg 57%
    02:00 +20°C° 0.1 mm 0 m/S 645 mmHg 60%
    03:00 +20°C° 0 mm 0 m/S 645 mmHg 62%
    04:00 +19°C° 0 mm 0 m/S 645 mmHg 64%
    05:00 +19°C° 0 mm 0 m/S 645 mmHg 67%
    06:00 +22°C° 0 mm 0 m/S 646 mmHg 59%
    07:00 +24°C° 0 mm 0 m/S 647 mmHg 51%
    08:00 +27°C° 0 mm 0 m/S 649 mmHg 43%
    09:00 +31°C° 0 mm 1 m/S 649 mmHg 37%
    10:00 +34°C° 0 mm 2 m/S 649 mmHg 31%
    11:00 +35°C° 0 mm 2 m/S 649 mmHg 26%
    12:00 +35°C° 0 mm 3 m/S 648 mmHg 24%
    13:00 +35°C° 0 mm 3 m/S 647 mmHg 23%
    14:00 +36°C° 0 mm 3 m/S 647 mmHg 22%
    15:00 +35°C° 0 mm 3 m/S 646 mmHg 23%
    16:00 +34°C° 0 mm 3 m/S 646 mmHg 25%
    17:00 +33°C° 0 mm 3 m/S 646 mmHg 26%
    18:00 +30°C° 0 mm 3 m/S 646 mmHg 29%
    19:00 +29°C° 0 mm 3 m/S 646 mmHg 31%
    20:00 +28°C° 0 mm 3 m/S 646 mmHg 34%
    21:00 +27°C° 0 mm 3 m/S 646 mmHg 38%
    22:00 +26°C° 0 mm 3 m/S 646 mmHg 43%
    23:00 +25°C° 0 mm 3 m/S 646 mmHg 48%

    Morgen, 20 Oktober, Samstag

    Zeit Temperatur Niederschläge Wind Luftdruck Luftfeuchtigkeit
    00:00 +24°C° 0 mm 2 m/S 646 mmHg 52%
    01:00 +23°C° 0 mm 2 m/S 646 mmHg 56%
    02:00 +21°C° 0 mm 2 m/S 645 mmHg 60%
    03:00 +21°C° 0 mm 2 m/S 645 mmHg 63%
    04:00 +20°C° 0 mm 2 m/S 645 mmHg 66%
    05:00 +20°C° 0 mm 2 m/S 645 mmHg 69%
    06:00 +23°C° 0 mm 2 m/S 646 mmHg 61%
    07:00 +25°C° 0 mm 3 m/S 648 mmHg 53%
    08:00 +27°C° 0 mm 3 m/S 649 mmHg 46%
    09:00 +29°C° 0 mm 4 m/S 649 mmHg 39%
    10:00 +32°C° 0 mm 4 m/S 649 mmHg 32%
    11:00 +34°C° 0 mm 4 m/S 649 mmHg 26%
    12:00 +35°C° 0 mm 4 m/S 648 mmHg 24%
    13:00 +36°C° 0 mm 4 m/S 648 mmHg 22%
    14:00 +36°C° 0 mm 4 m/S 647 mmHg 20%
    15:00 +35°C° 0 mm 4 m/S 646 mmHg 22%
    16:00 +34°C° 0 mm 3 m/S 646 mmHg 24%
    17:00 +31°C° 0 mm 3 m/S 646 mmHg 27%
    18:00 +30°C° 0 mm 3 m/S 646 mmHg 30%
    19:00 +29°C° 0 mm 3 m/S 647 mmHg 33%
    20:00 +28°C° 0 mm 3 m/S 647 mmHg 36%
    21:00 +27°C° 0 mm 4 m/S 647 mmHg 40%
    22:00 +26°C° 0 mm 4 m/S 647 mmHg 43%
    23:00 +25°C° 0 mm 4 m/S 647 mmHg 47%

    übermorgen, 21 Oktober, Sonntag

    Zeit Temperatur Niederschläge Wind Luftdruck Luftfeuchtigkeit
    00:00 +24°C° 0 mm 3 m/S 647 mmHg 51%
    01:00 +24°C° 0 mm 3 m/S 647 mmHg 54%
    02:00 +22°C° 0 mm 3 m/S 646 mmHg 58%
    03:00 +22°C° 0 mm 3 m/S 646 mmHg 61%
    04:00 +21°C° 0 mm 3 m/S 646 mmHg 64%
    05:00 +21°C° 0 mm 3 m/S 646 mmHg 67%
    06:00 +22°C° 0 mm 3 m/S 647 mmHg 61%
    07:00 +25°C° 0 mm 4 m/S 648 mmHg 55%
    08:00 +26°C° 0 mm 5 m/S 649 mmHg 49%
    09:00 +28°C° 0 mm 5 m/S 649 mmHg 43%
    10:00 +30°C° 0 mm 5 m/S 650 mmHg 36%
    11:00 +33°C° 0 mm 5 m/S 650 mmHg 30%
    12:00 +33°C° 0 mm 5 m/S 649 mmHg 30%
    13:00 +33°C° 0 mm 5 m/S 648 mmHg 30%
    14:00 +32°C° 0 mm 5 m/S 647 mmHg 30%
    15:00 +32°C° 0 mm 5 m/S 647 mmHg 33%
    16:00 +30°C° 0 mm 5 m/S 647 mmHg 36%
    17:00 +29°C° 0 mm 5 m/S 647 mmHg 40%
    18:00 +27°C° 1.6 mm 5 m/S 647 mmHg 48%
    19:00 +24°C° 1.6 mm 6 m/S 648 mmHg 57%
    20:00 +22°C° 1.6 mm 6 m/S 648 mmHg 65%
    21:00 +21°C° 0.5 mm 6 m/S 648 mmHg 68%
    22:00 +21°C° 0.5 mm 6 m/S 648 mmHg 72%
    23:00 +20°C° 0.5 mm 6 m/S 648 mmHg 75%

    22 Oktober, Montag

    Zeit Temperatur Niederschläge Wind Luftdruck Luftfeuchtigkeit
    00:00 +19°C° 0 mm 5 m/S 648 mmHg 75%
    01:00 +19°C° 0 mm 5 m/S 647 mmHg 75%
    02:00 +17°C° 0 mm 5 m/S 647 mmHg 76%
    03:00 +17°C° 0 mm 5 m/S 647 mmHg 76%
    04:00 +17°C° 0 mm 5 m/S 647 mmHg 76%
    05:00 +17°C° 0 mm 5 m/S 647 mmHg 76%
    06:00 +19°C° 0 mm 5 m/S 648 mmHg 71%
    07:00 +20°C° 0 mm 5 m/S 649 mmHg 66%
    08:00 +21°C° 0 mm 6 m/S 650 mmHg 62%
    09:00 +23°C° 0 mm 5 m/S 650 mmHg 56%
    10:00 +25°C° 0 mm 5 m/S 650 mmHg 50%
    11:00 +27°C° 0 mm 5 m/S 650 mmHg 44%
    12:00 +27°C° 0 mm 5 m/S 649 mmHg 42%
    13:00 +28°C° 0 mm 5 m/S 648 mmHg 39%
    14:00 +29°C° 0 mm 5 m/S 648 mmHg 37%
    15:00 +28°C° 0 mm 5 m/S 647 mmHg 39%
    16:00 +27°C° 0 mm 5 m/S 647 mmHg 42%
    17:00 +26°C° 0 mm 5 m/S 647 mmHg 44%
    18:00 +25°C° 0 mm 5 m/S 648 mmHg 48%
    19:00 +23°C° 0 mm 4 m/S 648 mmHg 53%
    20:00 +21°C° 0 mm 4 m/S 649 mmHg 57%
    21:00 +21°C° 0 mm 4 m/S 649 mmHg 60%
    22:00 +20°C° 0 mm 5 m/S 649 mmHg 63%
    23:00 +19°C° 0 mm 5 m/S 649 mmHg 65%

    23 Oktober, Dienstag

    Zeit Temperatur Niederschläge Wind Luftdruck Luftfeuchtigkeit
    00:00 +19°C° 0 mm 5 m/S 649 mmHg 68%
    01:00 +17°C° 0 mm 5 m/S 648 mmHg 71%
    02:00 +18°C° 0 mm 4 m/S 648 mmHg 73%
    03:00 +18°C° 0 mm 4 m/S 648 mmHg 75%
    04:00 +17°C° 0 mm 4 m/S 648 mmHg 76%
    05:00 +17°C° 0 mm 4 m/S 648 mmHg 78%
    06:00 +18°C° 0 mm 4 m/S 649 mmHg 71%
    07:00 +20°C° 0 mm 5 m/S 650 mmHg 65%
    08:00 +21°C° 0 mm 5 m/S 650 mmHg 58%
    09:00 +25°C° 0 mm 5 m/S 650 mmHg 51%
    10:00 +27°C° 0 mm 4 m/S 650 mmHg 43%
    11:00 +29°C° 0 mm 4 m/S 650 mmHg 36%
    12:00 +30°C° 0 mm 4 m/S 649 mmHg 33%
    13:00 +32°C° 0 mm 4 m/S 649 mmHg 30%
    14:00 +33°C° 0 mm 3 m/S 648 mmHg 27%
    15:00 +31°C° 0 mm 3 m/S 648 mmHg 28%
    16:00 +31°C° 0 mm 3 m/S 648 mmHg 29%
    17:00 +30°C° 0 mm 3 m/S 647 mmHg 30%
    18:00 +28°C° 0 mm 3 m/S 648 mmHg 33%
    19:00 +27°C° 0 mm 3 m/S 648 mmHg 36%
    20:00 +26°C° 0 mm 3 m/S 648 mmHg 39%
    21:00 +25°C° 0 mm 3 m/S 648 mmHg 41%
    22:00 +24°C° 0 mm 3 m/S 648 mmHg 44%
    23:00 +22°C° 0 mm 3 m/S 648 mmHg 46%

    24 Oktober, Mittwoch

    Zeit Temperatur Niederschläge Wind Luftdruck Luftfeuchtigkeit
    00:00 +21°C° 0 mm 3 m/S 648 mmHg 48%
    01:00 +21°C° 0 mm 3 m/S 647 mmHg 50%
    02:00 +20°C° 0 mm 3 m/S 647 mmHg 51%
    03:00 +20°C° 0 mm 3 m/S 647 mmHg 53%
    04:00 +19°C° 0 mm 3 m/S 647 mmHg 55%
    05:00 +19°C° 0 mm 3 m/S 647 mmHg 57%
    06:00 +20°C° 0 mm 3 m/S 648 mmHg 51%
    07:00 +22°C° 0 mm 4 m/S 649 mmHg 46%
    08:00 +25°C° 0 mm 4 m/S 650 mmHg 41%
    09:00 +27°C° 0 mm 4 m/S 650 mmHg 36%
    10:00 +29°C° 0 mm 4 m/S 650 mmHg 32%
    11:00 +31°C° 0 mm 3 m/S 650 mmHg 28%
    12:00 +33°C° 0 mm 3 m/S 649 mmHg 26%
    13:00 +34°C° 0 mm 3 m/S 648 mmHg 24%
    14:00 +35°C° 0 mm 3 m/S 648 mmHg 23%
    15:00 +33°C° 0 mm 3 m/S 647 mmHg 25%
    16:00 +31°C° 0 mm 3 m/S 647 mmHg 27%
    17:00 +30°C° 0 mm 3 m/S 647 mmHg 29%
    18:00 +29°C° 0 mm 4 m/S 647 mmHg 31%
    19:00 +28°C° 0 mm 4 m/S 647 mmHg 34%
    20:00 +26°C° 0 mm 4 m/S 648 mmHg 37%
    21:00 +25°C° 0 mm 4 m/S 648 mmHg 41%
    22:00 +23°C° 0 mm 4 m/S 647 mmHg 45%
    23:00 +22°C° 0 mm 3 m/S 647 mmHg 49%
    Mehr zeigen